When you browse on this site, cookies collect data to enhance your experience and personalize the content and advertising you see.
Visit our Privacy Policy to learn more. By continuing to use the site, you agree to this use of cookies and data.
  • In Hungary
  • List of Countries
  • For 7 days
  • Water Temperature
  • Weather Map
  • News
  • Weather Widgets
  • user-avatar
    Login

    Hourly Weather Kaczyniec

    Today, 19 September, Thursday

    Time Temperature Precipitation Wind Pressure Humidity
    00:00 +7°C° 0.1 mm 5 mps 753 mmHg 75%
    01:00 +7°C° 0.1 mm 4 mps 753 mmHg 72%
    02:00 +7°C° 0 mm 4 mps 753 mmHg 75%
    03:00 +6°C° 0 mm 4 mps 753 mmHg 78%
    04:00 +5°C° 0 mm 4 mps 753 mmHg 81%
    05:00 +6°C° 0 mm 4 mps 753 mmHg 83%
    06:00 +6°C° 0 mm 4 mps 753 mmHg 85%
    07:00 +6°C° 0 mm 4 mps 754 mmHg 87%
    08:00 +8°C° 0.1 mm 4 mps 754 mmHg 81%
    09:00 +9°C° 0.1 mm 5 mps 754 mmHg 76%
    10:00 +12°C° 0.1 mm 5 mps 754 mmHg 70%
    11:00 +13°C° 0.7 mm 5 mps 754 mmHg 64%
    12:00 +14°C° 0.7 mm 5 mps 754 mmHg 59%
    13:00 +14°C° 0.7 mm 5 mps 754 mmHg 53%
    14:00 +14°C° 0.2 mm 6 mps 754 mmHg 53%
    15:00 +14°C° 0.2 mm 6 mps 755 mmHg 52%
    16:00 +14°C° 0.2 mm 6 mps 755 mmHg 52%
    17:00 +12°C° 0 mm 5 mps 755 mmHg 57%
    18:00 +10°C° 0 mm 5 mps 755 mmHg 62%
    19:00 +10°C° 0 mm 4 mps 756 mmHg 67%
    20:00 +8°C° 0 mm 4 mps 756 mmHg 70%
    21:00 +8°C° 0 mm 3 mps 756 mmHg 74%
    22:00 +7°C° 0 mm 3 mps 757 mmHg 77%
    23:00 +7°C° 0 mm 3 mps 757 mmHg 79%

    Tomorrow, 20 September, Friday

    Time Temperature Precipitation Wind Pressure Humidity
    00:00 +7°C° 0 mm 3 mps 757 mmHg 80%
    01:00 +7°C° 0 mm 2 mps 757 mmHg 82%
    02:00 +5°C° 0 mm 3 mps 757 mmHg 84%
    03:00 +5°C° 0 mm 3 mps 757 mmHg 86%
    04:00 +5°C° 0 mm 3 mps 757 mmHg 89%
    05:00 +5°C° 0 mm 3 mps 757 mmHg 87%
    06:00 +6°C° 0 mm 4 mps 757 mmHg 85%
    07:00 +7°C° 0 mm 4 mps 757 mmHg 84%
    08:00 +8°C° 0 mm 4 mps 757 mmHg 76%
    09:00 +11°C° 0 mm 4 mps 757 mmHg 69%
    10:00 +13°C° 0 mm 4 mps 757 mmHg 62%
    11:00 +13°C° 0 mm 4 mps 757 mmHg 58%
    12:00 +14°C° 0 mm 4 mps 757 mmHg 54%
    13:00 +15°C° 0 mm 4 mps 756 mmHg 50%
    14:00 +15°C° 0 mm 4 mps 756 mmHg 51%
    15:00 +14°C° 0 mm 4 mps 756 mmHg 52%
    16:00 +14°C° 0 mm 4 mps 756 mmHg 53%
    17:00 +13°C° 0 mm 4 mps 756 mmHg 59%
    18:00 +12°C° 0 mm 3 mps 756 mmHg 66%
    19:00 +10°C° 0 mm 3 mps 756 mmHg 72%
    20:00 +10°C° 0 mm 3 mps 756 mmHg 74%
    21:00 +9°C° 0 mm 3 mps 756 mmHg 75%
    22:00 +9°C° 0 mm 3 mps 756 mmHg 77%
    23:00 +9°C° 0 mm 3 mps 756 mmHg 80%

    Day after tomorrow, 21 September, Saturday

    Time Temperature Precipitation Wind Pressure Humidity
    00:00 +8°C° 0 mm 3 mps 756 mmHg 83%
    01:00 +8°C° 0 mm 3 mps 756 mmHg 86%
    02:00 +8°C° 0 mm 3 mps 756 mmHg 89%
    03:00 +8°C° 0 mm 3 mps 756 mmHg 91%
    04:00 +8°C° 0 mm 3 mps 756 mmHg 93%
    05:00 +8°C° 0 mm 3 mps 756 mmHg 91%
    06:00 +9°C° 0 mm 3 mps 755 mmHg 89%
    07:00 +8°C° 0 mm 4 mps 755 mmHg 87%
    08:00 +11°C° 0 mm 4 mps 755 mmHg 80%
    09:00 +13°C° 0 mm 4 mps 756 mmHg 73%
    10:00 +15°C° 0 mm 4 mps 756 mmHg 66%
    11:00 +15°C° 0 mm 4 mps 755 mmHg 62%
    12:00 +17°C° 0 mm 4 mps 755 mmHg 59%
    13:00 +18°C° 0 mm 4 mps 755 mmHg 55%
    14:00 +18°C° 0 mm 4 mps 754 mmHg 55%
    15:00 +19°C° 0 mm 3 mps 754 mmHg 55%
    16:00 +19°C° 0 mm 3 mps 754 mmHg 55%
    17:00 +17°C° 0 mm 3 mps 754 mmHg 60%
    18:00 +16°C° 0 mm 2 mps 754 mmHg 64%
    19:00 +14°C° 0 mm 1 mps 753 mmHg 69%
    20:00 +14°C° 0 mm 2 mps 753 mmHg 69%
    21:00 +13°C° 0 mm 2 mps 753 mmHg 70%
    22:00 +13°C° 0 mm 2 mps 753 mmHg 70%
    23:00 +12°C° 0 mm 2 mps 753 mmHg 70%

    22 September, Sunday

    Time Temperature Precipitation Wind Pressure Humidity
    00:00 +12°C° 0 mm 2 mps 753 mmHg 70%
    01:00 +12°C° 0 mm 2 mps 753 mmHg 70%
    02:00 +10°C° 0 mm 2 mps 752 mmHg 70%
    03:00 +11°C° 0 mm 1 mps 752 mmHg 70%
    04:00 +11°C° 0 mm 1 mps 752 mmHg 70%
    05:00 +11°C° 0 mm 1 mps 752 mmHg 68%
    06:00 +10°C° 0 mm 2 mps 752 mmHg 66%
    07:00 +12°C° 0 mm 2 mps 752 mmHg 64%
    08:00 +14°C° 0 mm 2 mps 752 mmHg 56%
    09:00 +16°C° 0 mm 3 mps 752 mmHg 49%
    10:00 +18°C° 0 mm 3 mps 752 mmHg 42%
    11:00 +19°C° 0 mm 3 mps 751 mmHg 39%
    12:00 +21°C° 0 mm 4 mps 751 mmHg 36%
    13:00 +22°C° 0 mm 4 mps 751 mmHg 34%
    14:00 +22°C° 0 mm 4 mps 750 mmHg 36%
    15:00 +21°C° 0 mm 3 mps 750 mmHg 39%
    16:00 +21°C° 0 mm 3 mps 749 mmHg 41%
    17:00 +19°C° 0 mm 3 mps 749 mmHg 46%
    18:00 +18°C° 0 mm 3 mps 749 mmHg 50%
    19:00 +16°C° 0 mm 3 mps 749 mmHg 54%
    20:00 +14°C° 0 mm 3 mps 748 mmHg 57%
    21:00 +14°C° 0 mm 3 mps 748 mmHg 60%
    22:00 +13°C° 0 mm 3 mps 748 mmHg 63%
    23:00 +13°C° 0 mm 3 mps 748 mmHg 64%

    23 September, Monday

    Time Temperature Precipitation Wind Pressure Humidity
    00:00 +13°C° 0 mm 3 mps 747 mmHg 65%
    01:00 +13°C° 0 mm 3 mps 747 mmHg 66%
    02:00 +12°C° 0 mm 3 mps 747 mmHg 65%
    03:00 +12°C° 0 mm 3 mps 746 mmHg 65%
    04:00 +12°C° 0 mm 3 mps 746 mmHg 64%
    05:00 +14°C° 0 mm 2 mps 745 mmHg 64%
    06:00 +14°C° 0 mm 2 mps 745 mmHg 63%
    07:00 +14°C° 0 mm 2 mps 745 mmHg 63%
    08:00 +16°C° 0 mm 3 mps 745 mmHg 57%
    09:00 +18°C° 0 mm 3 mps 745 mmHg 51%
    10:00 +19°C° 0 mm 3 mps 745 mmHg 45%
    11:00 +20°C° 0 mm 4 mps 745 mmHg 45%
    12:00 +21°C° 0 mm 4 mps 745 mmHg 45%
    13:00 +21°C° 0 mm 5 mps 744 mmHg 45%
    14:00 +20°C° 0 mm 5 mps 744 mmHg 53%
    15:00 +19°C° 0 mm 5 mps 744 mmHg 61%
    16:00 +17°C° 0 mm 6 mps 745 mmHg 69%
    17:00 +16°C° 0.5 mm 6 mps 745 mmHg 76%
    18:00 +15°C° 0.5 mm 6 mps 745 mmHg 83%
    19:00 +14°C° 0.5 mm 7 mps 745 mmHg 89%
    20:00 +14°C° 1.6 mm 7 mps 745 mmHg 90%
    21:00 +14°C° 1.6 mm 7 mps 745 mmHg 90%
    22:00 +12°C° 1.6 mm 7 mps 745 mmHg 90%
    23:00 +12°C° 0.5 mm 7 mps 745 mmHg 87%

    24 September, Tuesday

    Time Temperature Precipitation Wind Pressure Humidity
    00:00 +12°C° 0.5 mm 7 mps 745 mmHg 85%
    01:00 +13°C° 0.5 mm 6 mps 745 mmHg 82%
    02:00 +13°C° 0 mm 6 mps 745 mmHg 83%
    03:00 +11°C° 0 mm 6 mps 745 mmHg 84%
    04:00 +12°C° 0 mm 5 mps 745 mmHg 85%
    05:00 +11°C° 0 mm 6 mps 745 mmHg 86%
    06:00 +11°C° 0 mm 6 mps 745 mmHg 86%
    07:00 +11°C° 0 mm 6 mps 745 mmHg 87%
    08:00 +13°C° 0 mm 6 mps 746 mmHg 82%
    09:00 +14°C° 0 mm 6 mps 746 mmHg 77%
    10:00 +15°C° 0 mm 6 mps 746 mmHg 72%
    11:00 +16°C° 0 mm 6 mps 746 mmHg 68%
    12:00 +16°C° 0 mm 6 mps 746 mmHg 65%
    13:00 +17°C° 0 mm 6 mps 745 mmHg 61%
    14:00 +17°C° 0 mm 5 mps 745 mmHg 65%
    15:00 +16°C° 0 mm 5 mps 745 mmHg 69%
    16:00 +15°C° 0 mm 5 mps 745 mmHg 72%
    17:00 +14°C° 0 mm 4 mps 745 mmHg 79%
    18:00 +13°C° 0 mm 4 mps 746 mmHg 86%
    19:00 +12°C° 0 mm 3 mps 746 mmHg 93%
    20:00 +11°C° 0 mm 3 mps 746 mmHg 94%
    21:00 +12°C° 0 mm 2 mps 746 mmHg 95%
    22:00 +12°C° 0 mm 2 mps 746 mmHg 96%
    23:00 +12°C° 0 mm 2 mps 745 mmHg 96%
    Show more